TimeEDT,TemperatureF,Dew PointF,Humidity,Sea Level PressureIn,VisibilityMPH,Wind Direction,Wind SpeedMPH,Gust SpeedMPH,PrecipitationIn,Events,Conditions,WindDirDegrees,DateUTC
12:12 AM,37.0,28.0,70,29.64,8.0,Variable,6.9,-,0.00,Rain,Light Rain,0,2014-03-11 04:12:00
12:34 AM,37.0,28.9,73,29.62,10.0,SE,3.5,-,0.00,,Overcast,140,2014-03-11 04:34:00
12:54 AM,37.0,28.9,73,29.61,10.0,SE,4.6,-,0.00,,Overcast,130,2014-03-11 04:54:00
1:54 AM,37.0,28.9,73,29.60,10.0,SE,4.6,-,N/A,,Overcast,140,2014-03-11 05:54:00
2:54 AM,36.0,28.0,73,29.56,10.0,SSE,4.6,-,0.00,,Overcast,160,2014-03-11 06:54:00
3:54 AM,37.0,28.0,70,29.52,10.0,SSW,8.1,-,N/A,,Overcast,200,2014-03-11 07:54:00
4:54 AM,35.1,28.9,78,29.52,10.0,South,3.5,-,N/A,,Partly Cloudy,190,2014-03-11 08:54:00
5:54 AM,35.1,30.0,82,29.53,9.0,SSW,8.1,-,N/A,,Clear,210,2014-03-11 09:54:00
6:54 AM,34.0,30.0,85,29.52,7.0,South,3.5,-,N/A,,Clear,180,2014-03-11 10:54:00
7:54 AM,34.0,30.0,85,29.55,5.0,SW,9.2,-,N/A,,Clear,220,2014-03-11 11:54:00
8:54 AM,37.0,30.9,79,29.56,7.0,SSW,8.1,-,N/A,,Clear,200,2014-03-11 12:54:00
9:54 AM,42.1,30.9,65,29.57,-9999.0,WSW,11.5,-,N/A,,Clear,240,2014-03-11 13:54:00
10:54 AM,45.0,30.0,56,29.57,8.0,WSW,10.4,-,N/A,,Unknown,250,2014-03-11 14:54:00
11:54 AM,48.0,28.9,48,29.56,10.0,North,-9999.0,-,N/A,,Clear,0,2014-03-11 15:54:00
12:54 PM,50.0,28.9,44,29.55,10.0,SW,12.7,19.6,N/A,,Scattered Clouds,220,2014-03-11 16:54:00
1:54 PM,51.1,28.0,41,29.54,10.0,WSW,13.8,-,N/A,,Clear,250,2014-03-11 17:54:00
2:54 PM,53.1,26.1,35,29.54,10.0,WSW,15.0,-,N/A,,Clear,250,2014-03-11 18:54:00
3:54 PM,53.1,24.1,32,29.56,10.0,WNW,15.0,25.3,N/A,,Clear,290,2014-03-11 19:54:00
4:54 PM,54.0,21.9,29,29.58,10.0,WNW,9.2,-,N/A,,Clear,300,2014-03-11 20:54:00
5:54 PM,53.1,23.0,31,29.61,10.0,WNW,4.6,-,N/A,,Clear,290,2014-03-11 21:54:00
6:54 PM,51.1,23.0,33,29.64,10.0,WNW,4.6,-,N/A,,Clear,300,2014-03-11 22:54:00
7:54 PM,46.0,25.0,44,29.68,10.0,Calm,Calm,-,N/A,,Clear,0,2014-03-11 23:54:00
8:54 PM,41.0,26.1,55,29.70,10.0,NE,3.5,-,N/A,,Clear,40,2014-03-12 00:54:00
9:54 PM,37.0,27.0,67,29.71,10.0,ESE,3.5,-,N/A,,Clear,110,2014-03-12 01:54:00
10:54 PM,37.0,28.0,70,29.73,10.0,Calm,Calm,-,N/A,,Scattered Clouds,0,2014-03-12 02:54:00
11:54 PM,39.0,30.0,70,29.73,10.0,Calm,Calm,-,N/A,,Overcast,0,2014-03-12 03:54:00